Regional Weather Roundup
Issued by NWS

Home | Current Version | Previous Version | Text Only | Print | Product List | Glossary On
Versions: 1 2 3 4 5 6 7 8 9 10 11 12 13 14 15 16 17 18 19 20 21 22 23 24 25 26 27 28 29 30 31 32 33 34 35 36 37 38 39 40 41 42 43 44 45 46 47 48 49 50
000
ASUS46 KPQR 072110
RWROR

OREGON REGIONAL WEATHER ROUNDUP
NATIONAL WEATHER SERVICE PORTLAND OR
100 PM PST WED DEC 07 2016

NOTE: "FAIR" INDICATES FEW OR NO CLOUDS BELOW 12,000 FEET WITH
NO SIGNIFICANT WEATHER AND/OR OBSTRUCTIONS TO VISIBILITY.

ORZ001>013-072200-
NORTHWEST OREGON


CITY           SKY/WX    TMP DP  RH WIND       PRES   REMARKS
ASTORIA        SUNNY     41  27  57 E18       30.28F
NEWPORT        PTSUNNY   36  30  80 E20G26    30.21F WCI  25
PORTLAND       MOSUNNY   39  22  50 E24G32    30.31F WCI  28
VANCOUVER WA   SUNNY     40  21  46 E14G24    30.32F WCI  32
SCAPPOOSE      SUNNY     40  25  55 E10       30.32F WCI  33
HILLSBORO      SUNNY     39  26  59 NE13      30.30F WCI  31
AURORA         SUNNY     41  22  46 NE15G23   30.28F
MCMINNVILLE    MOSUNNY   40  26  57 N13       30.28F WCI  32
SALEM          MOSUNNY   36  27  69 N6        30.25F WCI  31
CORVALLIS        N/A     34  28  80 NE10      30.26F WCI  26
EUGENE         CLOUDY    33  28  81 N12       30.23F WCI  24
$$

ORZ021-028-072200-
SOUTHWEST OREGON


CITY           SKY/WX    TMP DP  RH WIND       PRES   REMARKS
NORTH BEND     CLOUDY    43  28  56 E10G16    30.13F
BROOKINGS      CLOUDY    44  25  47 VRB7      30.07F
ROSEBURG       CLOUDY    36  29  75 CALM      30.17F
SEXTON SUMMIT  CLOUDY    24  18  77 SE14G24   29.99F WCI  12
MEDFORD        CLOUDY    35  26  69 NW3       30.14F
$$

ORZ014>016-041-072200-
COLUMBIA GORGE


CITY           SKY/WX    TMP DP  RH WIND       PRES   REMARKS
TROUTDALE      SUNNY     38  24  57 E24G30    30.32F WCI  27
HOOD RIVER     PTSUNNY   32  21  64 E13       30.44F WCI  22
THE DALLES     SUNNY     35  22  58 SE15      30.47F WCI  25
$$

ORZ029>031-041-044-049-050-061>064-502-503-505>511-072200-
EASTERN OREGON


CITY           SKY/WX    TMP DP  RH WIND       PRES   REMARKS
REDMOND        SUNNY     26  11  52 CALM      30.24F
BEND           SUNNY     23  14  68 CALM      30.22F
PRINEVILLE     SUNNY     25  12  58 SE7       30.24F WCI  17
KLAMATH FALLS  PTSUNNY   24  16  71 CALM      30.12F
LAKEVIEW       MOSUNNY   23   9  54 N3        30.14F
HERMISTON      SUNNY     32  21  64 E10       30.47F WCI  24
PENDLETON      SUNNY     25  16  68 CALM      30.41F
JOHN DAY       SUNNY     23  12  63 E6        30.25F WCI  15
MEACHAM        NOT AVBL
LA GRANDE      SUNNY     23   9  54 CALM      30.35F
BAKER CITY     SUNNY     16   8  71 W6        30.32F WCI   7
BURNS          MOSUNNY   22  10  60 NE6       30.23F WCI  14
ROME             N/A     27  10  49 SE5       30.23F WCI  22
ONTARIO        MOSUNNY   25  19  78 E3        30.42F
$$



USA.gov is the U.S. government's official web portal to all federal, state and local government web resources and services.